| time (UTC) | temp F | wind direction | speed MPH | gust MPH | rain 1hr in | rain 24hr in | rain mn in | humidity % | barometer mb |
| 20260508142236 | 51 | 156 | 0.0 | 0.0 | 0.00 | 0.00 | 0.00 | 71 | 1020.5 |
| 20260508140735 | 49 | 157 | 0.0 | 0.0 | 0.00 | 0.00 | 0.00 | 73 | 1020.2 |
| 20260508135235 | 48 | 157 | 0.0 | 0.0 | 0.00 | 0.00 | 0.00 | 75 | 1020.0 |
| 20260508133735 | 47 | 156 | 0.0 | 0.0 | 0.00 | 0.00 | 0.00 | 76 | 1019.9 |
| 20260508132232 | 47 | 156 | 0.0 | 0.0 | 0.00 | 0.00 | 0.00 | 75 | 1019.7 |
| 20260508130729 | 48 | 156 | 0.0 | 0.0 | 0.00 | 0.00 | 0.00 | 74 | 1019.5 |
| 20260508125927 | 48 | 156 | 0.0 | 0.0 | 0.00 | 0.00 | 0.00 | 73 | 1019.5 |
| 20260508123729 | 48 | 157 | 0.0 | 0.0 | 0.00 | 0.00 | 0.00 | 72 | 1019.2 |
| 20260508122227 | 49 | 156 | 0.0 | 0.0 | 0.00 | 0.00 | 0.00 | 72 | 1019.2 |
| 20260508120728 | 49 | 156 | 0.0 | 0.0 | 0.00 | 0.00 | 0.00 | 71 | 1019.2 |
| 20260508115226 | 49 | 157 | 0.0 | 0.0 | 0.00 | 0.00 | 0.00 | 71 | 1019.2 |
| 20260508113728 | 49 | 156 | 0.0 | 0.0 | 0.00 | 0.00 | 0.00 | 71 | 1019.0 |
| 20260508112227 | 49 | 156 | 0.0 | 0.0 | 0.00 | 0.00 | 0.00 | 70 | 1018.8 |
| 20260508110727 | 49 | 156 | 0.0 | 0.0 | 0.00 | 0.00 | 0.00 | 70 | 1018.6 |
| 20260508105227 | 49 | 157 | 0.0 | 0.0 | 0.00 | 0.00 | 0.00 | 69 | 1018.5 |
| 20260508103727 | 50 | 156 | 0.0 | 1.0 | 0.00 | 0.00 | 0.00 | 68 | 1018.5 |
| 20260508102227 | 51 | 157 | 0.0 | 0.0 | 0.00 | 0.00 | 0.00 | 66 | 1018.5 |
| 20260508101432 | 51 | 158 | 0.0 | 0.0 | 0.00 | 0.00 | 0.00 | 65 | 1018.3 |
| 20260508095222 | 51 | 158 | 0.0 | 0.0 | 0.00 | 0.00 | 0.00 | 65 | 1018.2 |
| 20260508093720 | 52 | 157 | 0.0 | 0.0 | 0.00 | 0.00 | 0.00 | 64 | 1018.2 |
| 20260508092914 | 52 | 158 | 0.0 | 0.0 | 0.00 | 0.00 | 0.00 | 64 | 1018.1 |
| 20260508090716 | 53 | 158 | 0.0 | 0.0 | 0.00 | 0.00 | 0.00 | 63 | 1018.0 |
| 20260508085214 | 53 | 158 | 0.0 | 0.0 | 0.00 | 0.00 | 0.00 | 62 | 1017.8 |
| 20260508083709 | 54 | 158 | 0.0 | 0.0 | 0.00 | 0.00 | 0.00 | 60 | 1017.6 |
| 20260508083606 | 55 | 158 | 0.0 | 0.0 | 0.00 | 0.00 | 0.00 | 59 | 1017.5 |
| 20260508080710 | 55 | 157 | 0.0 | 0.0 | 0.00 | 0.00 | 0.00 | 58 | 1017.5 |
| 20260508075208 | 56 | 159 | 0.0 | 1.0 | 0.00 | 0.00 | 0.00 | 56 | 1017.6 |
| 20260508073712 | 57 | 133 | 0.0 | 0.0 | 0.00 | 0.00 | 0.00 | 54 | 1017.6 |
| 20260508072208 | 58 | 115 | 0.0 | 0.0 | 0.00 | 0.00 | 0.00 | 53 | 1017.5 |
| 20260508070708 | 59 | 115 | 0.0 | 0.0 | 0.00 | 0.00 | 0.00 | 51 | 1017.3 |
| 20260508065207 | 60 | 198 | 0.0 | 0.0 | 0.00 | 0.00 | 0.00 | 48 | 1017.3 |
| 20260508063708 | 61 | 197 | 0.0 | 0.0 | 0.00 | 0.00 | 0.00 | 46 | 1017.5 |
| 20260508062207 | 62 | 198 | 0.0 | 1.0 | 0.00 | 0.00 | 0.00 | 44 | 1017.5 |
| 20260508060707 | 62 | 199 | 0.0 | 0.0 | 0.00 | 0.00 | 0.00 | 42 | 1017.2 |
| 20260508055207 | 63 | 199 | 0.0 | 0.0 | 0.00 | 0.00 | 0.00 | 41 | 1017.0 |
| 20260508053705 | 65 | 199 | 0.0 | 0.0 | 0.00 | 0.00 | 0.00 | 38 | 1016.9 |
| 20260508052207 | 67 | 199 | 0.0 | 1.0 | 0.00 | 0.00 | 0.00 | 34 | 1016.7 |
| 20260508050703 | 69 | 206 | 0.0 | 0.0 | 0.00 | 0.00 | 0.00 | 31 | 1016.6 |
| 20260508045201 | 71 | 298 | 0.0 | 0.0 | 0.00 | 0.00 | 0.00 | 27 | 1016.4 |
| 20260508043659 | 72 | 254 | 0.0 | 1.0 | 0.00 | 0.00 | 0.00 | 25 | 1016.3 |
| 20260508042157 | 73 | 276 | 0.0 | 3.0 | 0.00 | 0.00 | 0.00 | 23 | 1016.1 |
| 20260508040655 | 74 | 278 | 0.0 | 9.0 | 0.00 | 0.00 | 0.00 | 22 | 1015.6 |
| 20260508035152 | 75 | 248 | 1.0 | 7.0 | 0.00 | 0.00 | 0.00 | 21 | 1015.4 |
| 20260508033651 | 76 | 276 | 0.0 | 2.0 | 0.00 | 0.00 | 0.00 | 25 | 1015.2 |
| 20260508032151 | 77 | 216 | 0.0 | 3.0 | 0.00 | 0.00 | 0.00 | 19 | 1014.8 |
| 20260508030648 | 78 | 231 | 0.0 | 2.0 | 0.00 | 0.00 | 0.00 | 17 | 1014.6 |
| 20260508025147 | 79 | 265 | 1.0 | 6.0 | 0.00 | 0.00 | 0.00 | 15 | 1014.5 |
| 20260508024343 | 80 | 236 | 1.0 | 7.0 | 0.00 | 0.00 | 0.00 | 15 | 1014.4 |
| 20260508022147 | 81 | 208 | 0.0 | 8.0 | 0.00 | 0.00 | 0.00 | 16 | 1014.3 |
| 20260508020647 | 82 | 144 | 1.0 | 7.0 | 0.00 | 0.00 | 0.00 | 15 | 1014.3 |
| 20260508015145 | 83 | 226 | 1.0 | 6.0 | 0.00 | 0.00 | 0.00 | 15 | 1014.2 |
| 20260508013643 | 83 | 287 | 1.0 | 9.0 | 0.00 | 0.00 | 0.00 | 15 | 1014.1 |
| 20260508012833 | 84 | 315 | 1.0 | 4.0 | 0.00 | 0.00 | 0.00 | 16 | 1014.0 |
| 20260508010640 | 84 | 197 | 1.0 | 7.0 | 0.00 | 0.00 | 0.00 | 15 | 1014.0 |
| 20260508005141 | 85 | 247 | 1.0 | 11.0 | 0.00 | 0.00 | 0.00 | 15 | 1014.0 |
| 20260508004407 | 85 | 282 | 1.0 | 13.0 | 0.00 | 0.00 | 0.00 | 13 | 1014.1 |
| 20260508002140 | 85 | 291 | 2.0 | 13.0 | 0.00 | 0.00 | 0.00 | 14 | 1014.0 |
| 20260508000640 | 85 | 295 | 1.0 | 6.0 | 0.00 | 0.00 | 0.00 | 19 | 1014.0 |
| 20260507235140 | 85 | 285 | 0.0 | 5.0 | 0.00 | 0.00 | 0.00 | 18 | 1014.1 |
| 20260507233641 | 85 | 269 | 0.0 | 3.0 | 0.00 | 0.00 | 0.00 | 19 | 1014.1 |
| 20260507232142 | 85 | 266 | 0.0 | 2.0 | 0.00 | 0.00 | 0.00 | 21 | 1014.1 |
| 20260507232048 | 84 | 243 | 0.0 | 2.0 | 0.00 | 0.00 | 0.00 | 22 | 1014.3 |
| 20260507225141 | 84 | 156 | 0.0 | 4.0 | 0.00 | 0.00 | 0.00 | 19 | 1014.5 |
| 20260507223642 | 84 | 330 | 0.0 | 2.0 | 0.00 | 0.00 | 0.00 | 21 | 1014.6 |
| 20260507222142 | 83 | 50 | 0.0 | 3.0 | 0.00 | 0.00 | 0.00 | 20 | 1014.7 |
| 20260507220640 | 83 | 359 | 0.0 | 1.0 | 0.00 | 0.00 | 0.00 | 20 | 1015.0 |
| 20260507215140 | 83 | 246 | 0.0 | 3.0 | 0.00 | 0.00 | 0.00 | 19 | 1015.2 |
| 20260507214336 | 82 | 332 | 0.0 | 1.0 | 0.00 | 0.00 | 0.00 | 19 | 1015.5 |
| 20260507212140 | 81 | 354 | 0.0 | 0.0 | 0.00 | 0.00 | 0.00 | 21 | 1015.6 |
| 20260507210640 | 81 | 87 | 0.0 | 4.0 | 0.00 | 0.00 | 0.00 | 22 | 1015.7 |
| 20260507205139 | 81 | 265 | 0.0 | 1.0 | 0.00 | 0.00 | 0.00 | 23 | 1015.9 |
| 20260507204339 | 80 | 177 | 0.0 | 2.0 | 0.00 | 0.00 | 0.00 | 24 | 1016.0 |
| 20260507202829 | 79 | 285 | 0.0 | 1.0 | 0.00 | 0.00 | 0.00 | 25 | 1016.2 |
| 20260507200640 | 77 | 289 | 0.0 | 2.0 | 0.00 | 0.00 | 0.00 | 29 | 1016.3 |
| 20260507195140 | 76 | 288 | 0.0 | 1.0 | 0.00 | 0.00 | 0.00 | 31 | 1016.6 |
| 20260507194337 | 75 | 315 | 0.0 | 0.0 | 0.00 | 0.00 | 0.00 | 30 | 1016.8 |
| 20260507192136 | 74 | 359 | 0.0 | 1.0 | 0.00 | 0.00 | 0.00 | 37 | 1017.0 |
| 20260507190637 | 73 | 216 | 0.0 | 0.0 | 0.00 | 0.00 | 0.00 | 40 | 1017.3 |
| 20260507185135 | 72 | 247 | 0.0 | 1.0 | 0.00 | 0.00 | 0.00 | 43 | 1017.6 |
| 20260507183634 | 71 | 26 | 0.0 | 1.0 | 0.00 | 0.00 | 0.00 | 46 | 1017.8 |
| 20260507182133 | 69 | 168 | 0.0 | 2.0 | 0.00 | 0.00 | 0.00 | 50 | 1018.0 |
| 20260507180633 | 69 | 266 | 0.0 | 1.0 | 0.00 | 0.00 | 0.00 | 51 | 1018.2 |
| 20260507175818 | 67 | 25 | 0.0 | 1.0 | 0.00 | 0.00 | 0.00 | 55 | 1018.3 |
| 20260507173630 | 66 | 354 | 0.0 | 1.0 | 0.00 | 0.00 | 0.00 | 57 | 1018.6 |
| 20260507172130 | 64 | 25 | 0.0 | 1.0 | 0.00 | 0.00 | 0.00 | 60 | 1018.6 |
| 20260507170630 | 64 | 37 | 0.0 | 1.0 | 0.00 | 0.00 | 0.00 | 61 | 1018.8 |
| 20260507165846 | 62 | 241 | 0.0 | 0.0 | 0.00 | 0.00 | 0.00 | 64 | 1018.8 |
| 20260507163628 | 61 | 285 | 0.0 | 2.0 | 0.00 | 0.00 | 0.00 | 66 | 1019.0 |
| 20260507162128 | 60 | 273 | 0.0 | 1.0 | 0.00 | 0.00 | 0.00 | 66 | 1019.2 |
| 20260507161319 | 60 | 293 | 0.0 | 0.0 | 0.00 | 0.00 | 0.00 | 68 | 1019.3 |
| 20260507155820 | 59 | 354 | 0.0 | 0.0 | 0.00 | 0.00 | 0.00 | 69 | 1019.4 |
| 20260507153626 | 58 | 54 | 0.0 | 0.0 | 0.00 | 0.00 | 0.00 | 70 | 1019.5 |
| 20260507152822 | 57 | 87 | 0.0 | 0.0 | 0.00 | 0.00 | 0.00 | 72 | 1019.5 |
| 20260507150622 | 56 | 87 | 0.0 | 0.0 | 0.00 | 0.00 | 0.00 | 73 | 1019.6 |
| 20260507145121 | 55 | 106 | 0.0 | 0.0 | 0.00 | 0.00 | 0.00 | 76 | 1019.6 |
| 20260507143622 | 53 | 106 | 0.0 | 0.0 | 0.00 | 0.00 | 0.00 | 80 | 1019.6 |
| 20260507142818 | 52 | 106 | 0.0 | 0.0 | 0.00 | 0.00 | 0.00 | 82 | 1019.5 |